SCP
1 1 1 1 1 1 1 1 1 1 1 1 0 0 0 0 0 0 0 0 0 0 0 0 0 0 0 0 0 0 0 0 0 0 0 0 0 0 0 0 0 0 0
1 1 1 1 1 1 1 1 1 1 1 1 0 0 0 0 0 0 0 0 0 0 0 0 0 0 0 0 0 0 0 0 0 0 0 0 0 0 0 0 0 0 0
1 1 1 1 1 1 1 1 1 1 1 0 0 0 0 0 0 0 0 0 0 0 0 0 0 0 0 0 0 0 0 0 0 0 0 0 0 0 0 0 0 0 0
1 1 1 1 1 1 1 1 1 1 1 0 0 0 0 0 0 0 0 0 0 0 0 0 0 0 0 0 0 0 0 0 0 0 0 0 0 0 0 0 0 0 0
1 1 1 1 1 1 1 1 1 1 1 0 0 0 0 0 0 0 0 0 0 0 0 0 0 0 0 0 0 0 0 0 0 0 0 0 0 0 0 0 0 0 0
2 1 1 1 1 1 1 1 1 1 1 0 0 0 0 0 0 0 0 0 0 0 0 0 0 0 0 0 0 0 0 0 0 0 0 0 0 0 0 0 0 0 0
2 1 1 1 1 1 1 1 1 1 1 0 0 0 0 0 0 0 0 0 0 0 0 0 0 0 0 0 0 0 0 0 0 0 0 0 0 0 0 0 0 0 0
2 2 1 1 1 1 1 1 1 1 0 0 0 0 0 0 0 0 0 0 0 0 0 0 0 0 0 0 0 0 0 0 0 0 0 0 0 0 0 0 0 0 0
2 2 2 2 1 1 1 1 1 1 0 0 0 0 0 0 0 0 0 0 0 0 0 0 0 0 0 0 0 0 0 0 0 0 0 0 0 0 0 0 0 0 0
2 2 2 2 2 1 1 1 1 0 0 0 0 0 0 0 0 0 0 0 0 0 0 0 0 0 0 0 0 0 0 0 0 0 0 0 0 0 0 0 0 0 0
2 2 2 2 2 2 1 1 1 0 0 0 0 0 0 0 0 0 0 0 0 0 0 0 0 0 0 0 0 0 0 0 0 0 0 0 0 0 0 0 0 0 0
2 2 2 2 2 2 1 1 1 0 0 0 0 0 0 0 0 0 0 0 0 0 0 0 0 0 0 0 0 0 0 0 0 0 0 0 0 0 0 0 0 0 0
2 2 2 2 2 2 1 1 1 0 0 0 0 0 0 0 0 0 0 0 0 0 0 0 0 0 0 0 0 0 0 0 0 0 0 0 0 0 0 0 0 0 0
2 2 2 2 2 2 2 1 1 0 0 0 0 0 0 0 0 0 0 0 0 0 0 0 0 0 0 0 0 0 0 0 0 0 0 0 0 0 0 0 0 0 0
2 2 3 2 2 2 1 1 0 0 0 0 0 0 0 0 0 0 0 0 0 0 0 0 0 0 0 0 0 0 0 0 0 0 0 0 0 0 0 0 0 0 0
3 3 3 3 2 2 1 1 1 0 0 0 0 0 0 0 0 0 0 0 0 0 0 0 0 0 0 0 0 0 0 0 0 0 0 0 0 0 0 0 0 0 0
3 2 2 2 2 2 1 1 1 0 0 0 0 0 0 0 0 0 0 0 0 0 0 0 0 0 0 0 0 0 0 0 0 0 0 0 0 0 0 1 1 1 1
2 2 2 2 3 2 1 1 1 0 0 0 0 0 0 0 0 0 0 0 0 0 0 0 0 0 0 0 0 0 0 0 0 0 0 0 0 0 0 0 1 1 1
2 2 2 3 3 2 1 1 1 0 0 0 0 0 0 0 0 0 0 0 0 0 0 0 0 0 0 0 0 0 0 0 0 0 0 0 0 0 0 0 0 1 1
2 1 2 2 3 2 1 1 1 0 0 0 0 0 0 0 0 0 0 0 0 0 0 0 0 0 0 0 0 0 0 0 0 0 0 0 0 0 0 0 0 0 0
1 1 1 2 2 2 1 1 1 1 1 0 0 0 0 0 0 0 0 0 0 0 0 0 0 0 0 0 0 0 0 0 0 0 0 0 0 0 0 0 0 0 0
1 1 2 2 2 2 2 1 1 1 1 0 0 0 0 0 0 0 0 0 0 0 0 0 0 0 0 0 0 0 0 0 0 0 0 0 0 0 0 0 0 0 0
2 2 2 2 2 2 2 2 1 1 1 1 1 1 0 0 0 0 0 0 0 0 0 0 0 0 0 0 0 0 0 0 0 0 0 0 0 0 0 0 0 0 0
2 2 2 2 2 2 2 2 1 1 1 1 1 1 1 0 0 0 0 0 0 0 0 0 0 0 0 0 0 0 0 0 0 0 0 0 0 0 0 0 0 0 0
1 1 2 2 2 2 2 2 2 2 1 1 1 1 1 1 0 0 0 0 0 0 0 0 0 0 0 0 0 0 0 0 0 0 0 0 0 0 0 0 0 0 0
1 1 1 2 2 2 2 2 2 2 2 1 1 1 1 1 1 0 0 0 0 0 0 0 0 0 0 0 0 0 0 0 0 0 0 0 0 0 0 0 0 0 0
Wind_Speed
6 8 16 17 17 17 17 17 16 16 16 16 16 15 15 14 14 13 13 13 13 13 14 14 14 15 15 15 15 15 15 15 15 14 13 11 11 11 12 11 10 6 11
10 10 16 16 17 17 16 16 15 15 15 15 15 14 14 13 13 12 12 13 13 13 13 14 14 15 15 15 15 14 14 14 14 13 11 8 8 10 11 10 10 7 10
12 11 14 16 16 16 16 15 15 14 14 14 14 14 13 13 13 13 13 13 13 13 13 14 14 14 14 14 13 13 13 12 12 11 9 5 5 10 10 10 11 12 12
12 10 11 15 16 16 16 15 14 14 13 13 13 13 13 13 12 13 12 13 13 13 13 14 14 13 13 13 13 12 12 11 10 9 5 4 3 8 10 11 12 12 12
11 9 11 15 16 16 15 15 14 13 13 13 13 13 12 12 12 12 13 12 13 13 13 13 13 12 12 12 12 11 11 10 10 8 5 4 4 9 11 12 12 12 13
9 9 11 15 15 15 15 14 14 13 13 12 12 12 12 12 12 13 12 12 12 12 12 12 12 11 11 11 11 11 11 11 8 5 5 4 4 10 11 11 11 11 11
9 8 11 15 15 15 15 14 13 13 13 12 12 12 12 12 13 12 12 12 12 11 11 11 11 10 10 10 10 11 11 10 6 4 4 3 5 10 10 10 10 10 10
10 9 10 15 14 14 14 13 12 12 12 12 11 11 12 12 13 12 12 11 11 11 10 10 10 9 9 9 10 10 9 7 6 4 3 3 6 8 9 9 9 9 9
7 8 8 9 11 13 13 12 12 11 11 10 10 10 10 11 12 12 11 10 10 9 9 9 8 8 8 9 9 9 8 8 4 3 3 2 5 7 7 7 7 8 8
6 6 7 8 8 8 8 11 11 11 10 9 9 9 9 10 10 10 9 9 9 8 8 7 7 7 7 7 7 7 7 6 3 2 1 1 4 6 6 6 6 6 7
8 6 7 7 7 7 7 8 9 10 9 8 7 9 8 5 5 5 6 7 7 7 7 6 6 6 6 6 6 7 5 2 2 1 0 1 3 4 5 5 5 5 5
11 9 7 8 8 7 6 5 4 4 5 5 4 5 4 4 3 4 6 7 6 6 5 5 5 5 4 3 4 5 2 2 1 1 1 3 3 3 4 4 4 4 4
10 10 8 8 8 7 5 5 3 3 3 4 5 5 4 4 3 3 2 3 3 3 2 2 3 2 2 2 1 1 1 1 1 1 2 4 4 4 4 4 4 4 4
10 10 9 8 8 7 6 5 4 4 3 3 4 5 4 3 3 3 2 2 2 2 2 2 1 1 1 1 1 2 2 1 2 1 3 5 6 6 5 5 5 5 4
11 11 10 9 9 8 7 5 5 5 5 4 4 5 5 4 4 3 2 2 2 2 2 2 2 2 1 1 2 2 3 3 3 3 2 6 7 7 7 7 7 7 6
11 11 9 10 10 9 7 6 5 5 5 5 4 5 6 4 4 4 4 3 3 3 3 3 3 2 2 2 2 3 3 3 4 4 4 4 8 9 10 10 9 9 8
10 9 9 10 10 10 9 8 6 5 5 5 5 6 6 6 6 5 4 4 4 3 3 2 2 1 2 2 3 3 3 4 4 5 5 4 4 7 10 12 12 11 11
7 8 9 9 9 9 8 7 6 6 6 5 5 5 7 7 7 6 5 5 5 4 3 3 3 2 3 3 3 3 3 3 5 5 4 4 4 4 7 13 13 13 13
8 8 8 7 9 9 8 6 6 6 6 5 5 5 6 7 7 6 5 5 5 4 4 4 3 3 3 3 4 3 3 4 4 4 5 6 6 6 5 8 11 12 12
6 6 7 7 7 7 5 4 3 4 4 4 4 5 7 7 8 7 5 6 5 4 4 4 4 4 3 3 3 3 4 4 4 5 6 6 6 7 6 6 6 7 11
4 5 6 6 6 5 4 4 4 4 4 4 4 6 7 6 7 7 5 5 6 6 7 7 4 4 4 2 1 3 3 5 5 5 5 5 6 6 6 6 5 4 5
4 5 6 6 6 6 5 4 3 3 3 4 4 4 5 6 6 6 7 6 6 6 6 6 5 3 3 4 4 2 3 4 4 5 4 5 5 3 5 5 5 5 4
3 5 5 6 5 5 5 3 2 2 2 2 2 3 4 5 6 6 7 6 6 6 6 7 7 7 5 4 5 4 4 5 3 2 3 3 3 3 4 3 5 5 5
4 3 4 4 4 4 5 5 5 5 4 4 3 3 3 4 4 4 5 6 6 6 6 7 7 7 6 5 4 5 5 3 3 3 2 2 2 3 4 3 3 4 4
3 3 3 3 3 3 4 5 5 4 3 2 2 3 3 2 3 3 3 3 4 5 6 6 6 7 6 6 5 4 5 4 4 4 5 3 1 2 2 2 2 2 3
2 2 3 3 2 2 3 3 4 5 4 3 3 3 2 2 2 2 2 3 3 3 4 5 5 6 6 6 5 5 4 4 5 5 7 5 4 2 1 1 1 2 2
Wind_Direction
166 163 159 155 150 144 138 133 128 125 122 120 118 115 113 111 110 106 103 101 99 96 94 94 96 95 93 91 90 89 86 82 80 78 75 75 80 83 81 76 70 62 74
151 157 156 156 152 146 141 136 131 128 125 123 121 119 118 117 114 112 107 105 102 99 98 98 97 96 95 94 93 92 89 85 82 78 68 62 75 84 85 83 79 75 75
146 154 154 155 152 148 143 139 136 133 131 128 126 125 123 121 118 115 111 107 103 100 100 101 98 96 96 97 96 95 93 89 84 78 67 52 74 88 87 86 82 75 74
146 150 151 153 152 149 145 143 141 138 136 134 132 129 127 125 123 118 114 110 107 104 104 103 101 98 98 98 96 95 94 89 82 74 55 43 53 89 89 84 79 73 71
144 146 151 152 152 149 147 146 144 142 140 138 136 134 132 131 128 123 118 113 112 110 109 107 104 102 101 100 98 98 95 90 82 69 55 49 50 85 85 80 77 74 72
141 143 151 151 151 149 149 148 147 146 143 140 140 139 138 138 133 127 122 119 118 117 116 113 108 105 103 102 102 101 98 93 80 64 54 48 56 84 84 82 79 75 72
142 144 151 151 151 150 150 149 148 148 145 144 143 144 143 141 137 132 128 126 126 125 123 119 113 109 107 108 105 105 103 99 86 71 58 50 72 84 85 82 79 76 74
144 145 151 150 149 150 151 150 149 147 147 148 149 149 147 144 141 138 136 134 134 133 130 126 120 114 110 110 109 109 108 100 92 81 67 55 87 86 85 84 82 80 77
137 141 146 149 148 149 150 149 147 146 147 150 152 150 146 144 144 145 144 143 140 137 134 131 127 121 115 113 113 111 105 101 96 87 74 60 95 93 91 91 87 84 83
136 141 144 145 145 146 148 149 146 146 146 148 145 141 140 141 146 149 149 149 146 142 140 138 134 127 116 114 115 113 107 98 93 84 66 93 103 100 98 96 92 89 88
155 152 149 147 145 143 145 150 146 146 144 139 135 138 134 131 135 142 148 150 148 146 147 146 138 124 107 102 107 110 100 99 104 95 62 177 132 117 111 108 102 98 96
171 170 162 156 153 149 151 141 137 135 135 130 129 131 126 128 133 137 153 155 152 148 151 153 139 116 95 84 89 93 94 120 131 166 236 224 180 152 137 132 125 120 113
175 174 172 166 159 154 146 145 138 132 133 135 139 138 132 127 128 126 133 144 138 134 122 127 103 95 101 110 106 113 140 152 185 224 247 240 217 197 176 168 162 155 146
178 182 176 170 164 159 152 154 151 148 149 154 157 152 146 144 147 150 153 150 145 138 142 132 128 127 125 138 157 176 190 197 209 223 249 247 236 224 210 197 193 189 182
185 186 181 175 171 166 158 160 163 166 169 169 166 167 163 162 167 168 168 169 170 164 170 172 173 180 195 200 200 208 221 226 227 225 243 246 240 234 227 218 212 208 205
192 190 184 182 178 171 170 170 173 176 175 173 177 180 176 172 174 176 181 187 192 189 188 189 194 198 214 220 232 225 228 231 233 229 230 246 241 234 232 230 226 220 218
194 190 187 187 180 178 178 179 180 181 177 182 188 186 185 181 182 184 188 198 205 196 190 189 202 199 225 232 245 240 231 230 231 230 228 230 240 239 236 235 233 228 225
188 189 189 189 182 183 183 182 180 182 184 190 189 188 192 192 188 186 194 207 205 193 189 195 198 210 230 235 247 250 239 235 235 233 229 227 227 233 238 239 238 234 231
186 185 186 187 182 186 186 185 185 183 189 191 189 190 196 197 194 193 201 207 196 196 201 206 202 199 220 231 239 248 246 241 239 234 231 230 227 227 229 241 240 237 234
184 181 183 185 184 182 180 175 178 186 193 189 190 196 195 199 198 198 204 205 193 198 207 208 210 206 213 220 238 256 253 245 237 231 232 231 228 228 227 232 237 239 234
172 174 182 182 178 170 171 177 182 195 193 194 198 199 198 197 196 198 205 201 197 206 212 207 201 208 217 186 203 282 273 244 238 235 228 229 234 231 227 228 228 230 237
182 177 176 182 178 180 186 179 173 168 185 194 196 200 202 202 200 201 203 203 202 209 213 206 196 192 204 179 179 212 289 306 265 238 226 229 237 230 232 231 228 228 229
193 188 184 184 183 185 180 155 130 125 120 159 193 202 206 205 205 206 207 207 205 206 215 212 203 202 213 207 197 189 207 239 283 282 237 235 235 227 235 233 230 230 228
203 189 183 180 178 181 174 170 173 183 194 197 192 196 201 203 204 207 207 208 208 209 216 215 208 209 208 216 211 223 225 201 218 279 274 246 232 235 237 234 234 229 223
185 174 170 159 161 166 170 181 183 193 200 185 172 180 198 207 208 209 211 209 214 216 220 218 212 213 215 218 208 200 221 230 225 238 264 260 256 241 239 239 239 237 225
142 135 137 136 136 143 154 163 178 188 187 181 187 192 202 210 212 219 221 220 224 225 225 227 223 220 224 225 221 205 197 198 206 216 241 242 244 236 215 243 248 248 235